• Em Portugal
  • Lista de países
  • Para 7 dias
  • Temperatura da água
  • Mapas de satélite
  • Mapa do tempo
  • Widgets de tempo
  • user-avatar
    Iniciar Sessão

    Previsão horária em Tappita

    Hoje, 23 Maio, Quarta-feira

    Tempo Temperatura Precipitação Vento Pressão Humidade
    00:00 +25°C° 0 mm 1 m/s 738 mmHg 99%
    01:00 +23°C° 0 mm 0 m/s 738 mmHg 99%
    02:00 +23°C° 0 mm 0 m/s 738 mmHg 99%
    03:00 +23°C° 0 mm 0 m/s 738 mmHg 99%
    04:00 +23°C° 0 mm 0 m/s 738 mmHg 99%
    05:00 +22°C° 0 mm 0 m/s 738 mmHg 99%
    06:00 +26°C° 0 mm 1 m/s 738 mmHg 95%
    07:00 +27°C° 0 mm 1 m/s 738 mmHg 90%
    08:00 +28°C° 0 mm 1 m/s 739 mmHg 86%
    09:00 +29°C° 0 mm 1 m/s 739 mmHg 80%
    10:00 +30°C° 0 mm 1 m/s 739 mmHg 73%
    11:00 +32°C° 0 mm 1 m/s 739 mmHg 65%
    12:00 +32°C° 0,4 mm 1 m/s 738 mmHg 66%
    13:00 +32°C° 0,4 mm 1 m/s 738 mmHg 67%
    14:00 +32°C° 0,4 mm 1 m/s 737 mmHg 68%
    15:00 +31°C° 0,9 mm 1 m/s 737 mmHg 74%
    16:00 +30°C° 0,9 mm 1 m/s 737 mmHg 80%
    17:00 +29°C° 0,9 mm 1 m/s 737 mmHg 86%
    18:00 +28°C° 0,5 mm 1 m/s 738 mmHg 89%
    19:00 +27°C° 0,5 mm 1 m/s 738 mmHg 92%
    20:00 +26°C° 0,5 mm 1 m/s 739 mmHg 96%
    21:00 +26°C° 0 mm 1 m/s 739 mmHg 96%
    22:00 +26°C° 0 mm 1 m/s 739 mmHg 97%
    23:00 +25°C° 0 mm 1 m/s 739 mmHg 97%

    Amanhã, 24 Maio, Quinta-feira

    Tempo Temperatura Precipitação Vento Pressão Humidade
    00:00 +25°C° 0 mm 1 m/s 738 mmHg 97%
    01:00 +25°C° 0 mm 1 m/s 738 mmHg 98%
    02:00 +23°C° 0 mm 0 m/s 738 mmHg 98%
    03:00 +23°C° 0,7 mm 0 m/s 738 mmHg 99%
    04:00 +23°C° 0,7 mm 0 m/s 738 mmHg 99%
    05:00 +22°C° 0,7 mm 0 m/s 738 mmHg 99%
    06:00 +26°C° 0,1 mm 1 m/s 738 mmHg 94%
    07:00 +27°C° 0,1 mm 1 m/s 739 mmHg 90%
    08:00 +28°C° 0,1 mm 1 m/s 739 mmHg 86%
    09:00 +30°C° 0,1 mm 1 m/s 739 mmHg 78%
    10:00 +31°C° 0,1 mm 1 m/s 739 mmHg 70%
    11:00 +33°C° 0,1 mm 1 m/s 739 mmHg 62%
    12:00 +32°C° 2,2 mm 1 m/s 738 mmHg 69%
    13:00 +31°C° 2,2 mm 1 m/s 737 mmHg 76%
    14:00 +30°C° 2,2 mm 1 m/s 737 mmHg 83%
    15:00 +29°C° 1,2 mm 1 m/s 737 mmHg 87%
    16:00 +28°C° 1,2 mm 1 m/s 737 mmHg 91%
    17:00 +27°C° 1,2 mm 1 m/s 737 mmHg 95%
    18:00 +26°C° 1 mm 1 m/s 738 mmHg 96%
    19:00 +26°C° 1 mm 1 m/s 738 mmHg 96%
    20:00 +25°C° 1 mm 1 m/s 739 mmHg 97%
    21:00 +25°C° 0,1 mm 1 m/s 739 mmHg 97%
    22:00 +25°C° 0,1 mm 1 m/s 738 mmHg 97%
    23:00 +25°C° 0,1 mm 1 m/s 738 mmHg 98%

    Depois de amanhã, 25 Maio, Sexta-feira

    Tempo Temperatura Precipitação Vento Pressão Humidade
    00:00 +25°C° 0 mm 1 m/s 738 mmHg 98%
    01:00 +24°C° 0 mm 1 m/s 737 mmHg 98%
    02:00 +22°C° 0 mm 0 m/s 737 mmHg 99%
    03:00 +22°C° 0 mm 0 m/s 737 mmHg 98%
    04:00 +22°C° 0 mm 0 m/s 737 mmHg 98%
    05:00 +22°C° 0 mm 0 m/s 737 mmHg 98%
    06:00 +23°C° 0 mm 0 m/s 738 mmHg 95%
    07:00 +24°C° 0 mm 0 m/s 738 mmHg 92%
    08:00 +27°C° 0 mm 1 m/s 739 mmHg 89%
    09:00 +29°C° 0,1 mm 1 m/s 739 mmHg 79%
    10:00 +31°C° 0,1 mm 1 m/s 739 mmHg 69%
    11:00 +33°C° 0,1 mm 1 m/s 739 mmHg 59%
    12:00 +34°C° 0,2 mm 2 m/s 738 mmHg 58%
    13:00 +34°C° 0,2 mm 2 m/s 737 mmHg 58%
    14:00 +34°C° 0,2 mm 2 m/s 736 mmHg 57%
    15:00 +32°C° 0,8 mm 2 m/s 736 mmHg 68%
    16:00 +30°C° 0,8 mm 2 m/s 736 mmHg 79%
    17:00 +28°C° 0,8 mm 1 m/s 736 mmHg 90%
    18:00 +27°C° 0,8 mm 1 m/s 737 mmHg 92%
    19:00 +26°C° 0,8 mm 1 m/s 737 mmHg 95%
    20:00 +25°C° 0,8 mm 1 m/s 738 mmHg 97%
    21:00 +25°C° 0 mm 1 m/s 738 mmHg 97%
    22:00 +25°C° 0 mm 1 m/s 738 mmHg 98%
    23:00 +25°C° 0 mm 1 m/s 738 mmHg 98%

    26 Maio, Sábado

    Tempo Temperatura Precipitação Vento Pressão Humidade
    00:00 +25°C° 0 mm 1 m/s 738 mmHg 99%
    01:00 +24°C° 0 mm 1 m/s 737 mmHg 99%
    02:00 +24°C° 0 mm 1 m/s 737 mmHg 99%
    03:00 +24°C° 0 mm 1 m/s 737 mmHg 99%
    04:00 +24°C° 0 mm 1 m/s 737 mmHg 98%
    05:00 +24°C° 0 mm 1 m/s 737 mmHg 98%
    06:00 +25°C° 0 mm 1 m/s 737 mmHg 96%
    07:00 +25°C° 0 mm 1 m/s 738 mmHg 94%
    08:00 +26°C° 0 mm 1 m/s 738 mmHg 92%
    09:00 +27°C° 0,1 mm 1 m/s 738 mmHg 86%
    10:00 +28°C° 0,1 mm 1 m/s 738 mmHg 80%
    11:00 +30°C° 0,1 mm 1 m/s 738 mmHg 74%
    12:00 +31°C° 0,1 mm 1 m/s 737 mmHg 68%
    13:00 +32°C° 0,1 mm 1 m/s 737 mmHg 62%
    14:00 +33°C° 0,1 mm 1 m/s 736 mmHg 56%
    15:00 +32°C° 1,1 mm 2 m/s 736 mmHg 65%
    16:00 +30°C° 1,1 mm 2 m/s 737 mmHg 74%
    17:00 +28°C° 1,1 mm 2 m/s 737 mmHg 83%
    18:00 +27°C° 0,2 mm 2 m/s 737 mmHg 87%
    19:00 +26°C° 0,2 mm 1 m/s 738 mmHg 91%
    20:00 +25°C° 0,2 mm 1 m/s 738 mmHg 94%
    21:00 +25°C° 0,1 mm 1 m/s 739 mmHg 95%
    22:00 +25°C° 0,1 mm 1 m/s 739 mmHg 96%
    23:00 +23°C° 0,1 mm 0 m/s 739 mmHg 97%

    27 Maio, Domingo

    Tempo Temperatura Precipitação Vento Pressão Humidade
    00:00 +23°C° 0 mm 0 m/s 738 mmHg 98%
    01:00 +22°C° 0 mm 0 m/s 738 mmHg 98%
    02:00 +22°C° 0 mm 0 m/s 737 mmHg 98%
    03:00 +22°C° 0 mm 0 m/s 737 mmHg 98%
    04:00 +24°C° 0 mm 1 m/s 737 mmHg 98%
    05:00 +24°C° 0 mm 1 m/s 737 mmHg 98%
    06:00 +25°C° 0 mm 1 m/s 738 mmHg 96%
    07:00 +26°C° 0 mm 1 m/s 739 mmHg 93%
    08:00 +24°C° 0 mm 0 m/s 739 mmHg 90%
    09:00 +28°C° 0,1 mm 1 m/s 739 mmHg 83%
    10:00 +29°C° 0,1 mm 1 m/s 739 mmHg 77%
    11:00 +30°C° 0,1 mm 1 m/s 739 mmHg 70%
    12:00 +31°C° 0,3 mm 1 m/s 738 mmHg 67%
    13:00 +32°C° 0,3 mm 1 m/s 737 mmHg 64%
    14:00 +32°C° 0,3 mm 1 m/s 737 mmHg 61%
    15:00 +31°C° 1 mm 1 m/s 737 mmHg 70%
    16:00 +29°C° 1 mm 2 m/s 737 mmHg 79%
    17:00 +27°C° 1 mm 2 m/s 737 mmHg 89%
    18:00 +27°C° 2 mm 2 m/s 738 mmHg 91%
    19:00 +26°C° 2 mm 1 m/s 739 mmHg 94%
    20:00 +25°C° 2 mm 1 m/s 739 mmHg 96%
    21:00 +25°C° 0,2 mm 1 m/s 740 mmHg 97%
    22:00 +24°C° 0,2 mm 1 m/s 740 mmHg 97%
    23:00 +24°C° 0,2 mm 1 m/s 740 mmHg 98%

    28 Maio, Segunda-feira

    Tempo Temperatura Precipitação Vento Pressão Humidade
    00:00 +24°C° 0 mm 1 m/s 739 mmHg 98%
    01:00 +22°C° 0 mm 0 m/s 739 mmHg 99%
    02:00 +22°C° 0 mm 0 m/s 738 mmHg 99%
    03:00 +22°C° 0 mm 0 m/s 738 mmHg 99%
    04:00 +22°C° 0 mm 0 m/s 738 mmHg 99%
    05:00 +22°C° 0 mm 0 m/s 739 mmHg 99%
    06:00 +23°C° 0 mm 0 m/s 739 mmHg 96%
    07:00 +23°C° 0 mm 0 m/s 740 mmHg 94%
    08:00 +24°C° 0 mm 0 m/s 740 mmHg 92%
    09:00 +25°C° 0 mm 0 m/s 740 mmHg 85%
    10:00 +29°C° 0 mm 1 m/s 739 mmHg 78%
    11:00 +30°C° 0 mm 1 m/s 739 mmHg 71%
    12:00 +30°C° 0,1 mm 1 m/s 739 mmHg 69%
    13:00 +31°C° 0,1 mm 1 m/s 738 mmHg 67%
    14:00 +32°C° 0,1 mm 1 m/s 737 mmHg 65%
    15:00 +30°C° 1,7 mm 1 m/s 737 mmHg 74%
    16:00 +28°C° 1,7 mm 1 m/s 738 mmHg 82%
    17:00 +27°C° 1,7 mm 1 m/s 738 mmHg 91%
    18:00 +26°C° 0,4 mm 1 m/s 738 mmHg 93%
    19:00 +25°C° 0,4 mm 1 m/s 739 mmHg 95%
    20:00 +25°C° 0,4 mm 1 m/s 739 mmHg 97%
    21:00 +24°C° 0 mm 1 m/s 739 mmHg 97%
    22:00 +24°C° 0 mm 1 m/s 739 mmHg 98%
    23:00 +24°C° 0 mm 1 m/s 739 mmHg 98%
    Mostrar mais